When you browse on this site, cookies collect data to enhance your experience and personalize the content and advertising you see.
Visit our Privacy Policy to learn more. By continuing to use the site, you agree to this use of cookies and data.
  • In France
  • List of Countries
  • For 7 days
  • Water Temperature
  • Satellite Maps
  • Weather Map
  • Weather Widgets
  • user-avatar
    Login

    Hourly Weather Elbasan

    Today, 23 January, Wednesday

    Time Temperature Precipitation Wind Pressure Humidity
    00:00 +6°C° 0.4 mm 2 mps 726 mmHg 91%
    01:00 +6°C° 0 mm 2 mps 726 mmHg 92%
    02:00 +6°C° 0.3 mm 2 mps 726 mmHg 92%
    03:00 +6°C° 0.3 mm 2 mps 725 mmHg 92%
    04:00 +6°C° 0.3 mm 2 mps 725 mmHg 91%
    05:00 +6°C° 0.3 mm 2 mps 725 mmHg 90%
    06:00 +6°C° 0.3 mm 2 mps 725 mmHg 88%
    07:00 +6°C° 0 mm 2 mps 725 mmHg 87%
    08:00 +7°C° 0.5 mm 2 mps 724 mmHg 86%
    09:00 +8°C° 0.5 mm 1 mps 724 mmHg 85%
    10:00 +9°C° 0.5 mm 1 mps 724 mmHg 84%
    11:00 +9°C° 0.7 mm 1 mps 723 mmHg 84%
    12:00 +9°C° 0.7 mm 1 mps 723 mmHg 83%
    13:00 +9°C° 0.7 mm 1 mps 722 mmHg 83%
    14:00 +9°C° 1.4 mm 1 mps 721 mmHg 86%
    15:00 +8°C° 1.4 mm 1 mps 721 mmHg 88%
    16:00 +7°C° 1.4 mm 1 mps 720 mmHg 90%
    17:00 +7°C° 0.9 mm 1 mps 720 mmHg 90%
    18:00 +7°C° 0.9 mm 1 mps 719 mmHg 90%
    19:00 +7°C° 0.9 mm 1 mps 719 mmHg 89%
    20:00 +7°C° 1.4 mm 1 mps 719 mmHg 90%
    21:00 +7°C° 1.4 mm 1 mps 719 mmHg 91%
    22:00 +6°C° 1.4 mm 1 mps 719 mmHg 92%
    23:00 +6°C° 1.4 mm 1 mps 718 mmHg 92%

    Tomorrow, 24 January, Thursday

    Time Temperature Precipitation Wind Pressure Humidity
    00:00 +6°C° 1.4 mm 1 mps 718 mmHg 93%
    01:00 +5°C° 1.4 mm 0 mps 718 mmHg 93%
    02:00 +6°C° 1.3 mm 1 mps 717 mmHg 93%
    03:00 +6°C° 1.3 mm 1 mps 717 mmHg 94%
    04:00 +6°C° 1.3 mm 1 mps 717 mmHg 94%
    05:00 +5°C° 0.6 mm 1 mps 717 mmHg 94%
    06:00 +5°C° 0.6 mm 1 mps 718 mmHg 93%
    07:00 +5°C° 0.6 mm 1 mps 718 mmHg 93%
    08:00 +6°C° 0 mm 1 mps 718 mmHg 89%
    09:00 +7°C° 0 mm 1 mps 719 mmHg 85%
    10:00 +8°C° 0 mm 1 mps 719 mmHg 80%
    11:00 +8°C° 0 mm 1 mps 719 mmHg 77%
    12:00 +9°C° 0 mm 1 mps 719 mmHg 73%
    13:00 +9°C° 0 mm 1 mps 719 mmHg 69%
    14:00 +8°C° 0 mm 2 mps 719 mmHg 71%
    15:00 +8°C° 0 mm 2 mps 719 mmHg 74%
    16:00 +7°C° 0 mm 2 mps 719 mmHg 76%
    17:00 +5°C° 0 mm 3 mps 719 mmHg 77%
    18:00 +4°C° 0 mm 3 mps 719 mmHg 78%
    19:00 +3°C° 0 mm 3 mps 719 mmHg 79%
    20:00 +3°C° 0 mm 4 mps 718 mmHg 77%
    21:00 +4°C° 0 mm 4 mps 718 mmHg 76%
    22:00 +3°C° 0 mm 5 mps 718 mmHg 75%
    23:00 +3°C° 0.1 mm 5 mps 718 mmHg 75%

    Day after tomorrow, 25 January, Friday

    Time Temperature Precipitation Wind Pressure Humidity
    00:00 +4°C° 0.1 mm 4 mps 718 mmHg 75%
    01:00 +5°C° 0.1 mm 4 mps 718 mmHg 75%
    02:00 +4°C° 0.2 mm 4 mps 717 mmHg 78%
    03:00 +4°C° 0.2 mm 3 mps 717 mmHg 81%
    04:00 +4°C° 0.2 mm 2 mps 717 mmHg 84%
    05:00 +4°C° 0.3 mm 2 mps 718 mmHg 84%
    06:00 +4°C° 0.3 mm 2 mps 718 mmHg 84%
    07:00 +4°C° 0.3 mm 2 mps 718 mmHg 85%
    08:00 +5°C° 0.3 mm 2 mps 719 mmHg 84%
    09:00 +5°C° 0.3 mm 2 mps 719 mmHg 83%
    10:00 +6°C° 0.3 mm 2 mps 720 mmHg 82%
    11:00 +7°C° 0 mm 2 mps 719 mmHg 80%
    12:00 +7°C° 0 mm 2 mps 719 mmHg 78%
    13:00 +8°C° 0 mm 2 mps 719 mmHg 76%
    14:00 +7°C° 0 mm 2 mps 719 mmHg 77%
    15:00 +7°C° 0 mm 2 mps 719 mmHg 78%
    16:00 +7°C° 0 mm 2 mps 719 mmHg 79%
    17:00 +6°C° 0 mm 2 mps 720 mmHg 80%
    18:00 +5°C° 0 mm 2 mps 720 mmHg 80%
    19:00 +4°C° 0 mm 2 mps 720 mmHg 81%
    20:00 +4°C° 0 mm 2 mps 721 mmHg 80%
    21:00 +3°C° 0 mm 2 mps 721 mmHg 80%
    22:00 +2°C° 0 mm 2 mps 721 mmHg 80%
    23:00 +2°C° 0 mm 2 mps 722 mmHg 79%

    26 January, Saturday

    Time Temperature Precipitation Wind Pressure Humidity
    00:00 +2°C° 0 mm 2 mps 722 mmHg 79%
    01:00 +1°C° 0 mm 2 mps 722 mmHg 78%
    02:00 +1°C° 0 mm 2 mps 722 mmHg 77%
    03:00 0°C° 0 mm 3 mps 722 mmHg 77%
    04:00 0°C° 0 mm 3 mps 722 mmHg 76%
    05:00 0°C° 0 mm 3 mps 722 mmHg 76%
    06:00 -1°C° 0 mm 3 mps 722 mmHg 75%
    07:00 -1°C° 0 mm 3 mps 723 mmHg 75%
    08:00 +2°C° 0 mm 2 mps 723 mmHg 73%
    09:00 +4°C° 0 mm 2 mps 723 mmHg 70%
    10:00 +5°C° 0 mm 2 mps 724 mmHg 68%
    11:00 +6°C° 0 mm 2 mps 724 mmHg 67%
    12:00 +7°C° 0 mm 2 mps 724 mmHg 66%
    13:00 +8°C° 0 mm 2 mps 724 mmHg 65%
    14:00 +7°C° 0 mm 2 mps 724 mmHg 67%
    15:00 +7°C° 0 mm 2 mps 724 mmHg 70%
    16:00 +7°C° 0 mm 2 mps 724 mmHg 72%
    17:00 +5°C° 0 mm 2 mps 725 mmHg 74%
    18:00 +4°C° 0 mm 2 mps 725 mmHg 75%
    19:00 +3°C° 0 mm 2 mps 726 mmHg 77%
    20:00 +2°C° 0 mm 2 mps 726 mmHg 77%
    21:00 +2°C° 0 mm 2 mps 726 mmHg 77%
    22:00 +1°C° 0 mm 2 mps 727 mmHg 77%
    23:00 +1°C° 0 mm 2 mps 727 mmHg 76%

    27 January, Sunday

    Time Temperature Precipitation Wind Pressure Humidity
    00:00 +1°C° 0 mm 2 mps 727 mmHg 76%
    01:00 -1°C° 0 mm 2 mps 727 mmHg 75%
    02:00 -1°C° 0 mm 2 mps 727 mmHg 74%
    03:00 -1°C° 0 mm 2 mps 727 mmHg 73%
    04:00 -1°C° 0 mm 2 mps 726 mmHg 73%
    05:00 -1°C° 0 mm 2 mps 726 mmHg 72%
    06:00 -1°C° 0 mm 2 mps 727 mmHg 72%
    07:00 -1°C° 0 mm 2 mps 727 mmHg 71%
    08:00 +2°C° 0 mm 2 mps 727 mmHg 68%
    09:00 +5°C° 0 mm 1 mps 727 mmHg 65%
    10:00 +7°C° 0 mm 1 mps 727 mmHg 61%
    11:00 +7°C° 0 mm 1 mps 727 mmHg 61%
    12:00 +8°C° 0 mm 1 mps 726 mmHg 61%
    13:00 +9°C° 0 mm 1 mps 726 mmHg 61%
    14:00 +8°C° 0 mm 1 mps 726 mmHg 62%
    15:00 +8°C° 0 mm 1 mps 726 mmHg 64%
    16:00 +7°C° 0 mm 1 mps 726 mmHg 66%
    17:00 +6°C° 0 mm 1 mps 726 mmHg 67%
    18:00 +5°C° 0 mm 1 mps 727 mmHg 69%
    19:00 +3°C° 0 mm 0 mps 727 mmHg 71%
    20:00 +3°C° 0 mm 1 mps 727 mmHg 71%
    21:00 +3°C° 0 mm 1 mps 728 mmHg 71%
    22:00 +3°C° 0 mm 1 mps 728 mmHg 71%
    23:00 +2°C° 0 mm 2 mps 728 mmHg 72%

    28 January, Monday

    Time Temperature Precipitation Wind Pressure Humidity
    00:00 +2°C° 0 mm 2 mps 728 mmHg 72%
    01:00 +2°C° 0 mm 2 mps 728 mmHg 73%
    02:00 +2°C° 0 mm 2 mps 728 mmHg 74%
    03:00 +2°C° 0 mm 2 mps 728 mmHg 75%
    04:00 +2°C° 0 mm 2 mps 728 mmHg 77%
    05:00 +2°C° 0 mm 2 mps 728 mmHg 77%
    06:00 +1°C° 0 mm 3 mps 728 mmHg 77%
    07:00 +1°C° 0 mm 3 mps 728 mmHg 77%
    08:00 +3°C° 0 mm 3 mps 728 mmHg 74%
    09:00 +4°C° 0 mm 3 mps 728 mmHg 71%
    10:00 +7°C° 0 mm 3 mps 728 mmHg 68%
    11:00 +8°C° 0.1 mm 3 mps 728 mmHg 69%
    12:00 +8°C° 0.1 mm 3 mps 728 mmHg 69%
    13:00 +8°C° 0.1 mm 4 mps 727 mmHg 69%
    14:00 +8°C° 0.2 mm 3 mps 728 mmHg 72%
    15:00 +8°C° 0.2 mm 3 mps 728 mmHg 74%
    16:00 +7°C° 0.2 mm 3 mps 728 mmHg 77%
    17:00 +7°C° 0.2 mm 3 mps 728 mmHg 77%
    18:00 +7°C° 0.2 mm 3 mps 728 mmHg 78%
    19:00 +5°C° 0.2 mm 3 mps 728 mmHg 79%
    20:00 +5°C° 0 mm 4 mps 728 mmHg 78%
    21:00 +5°C° 0 mm 4 mps 728 mmHg 78%
    22:00 +4°C° 0 mm 4 mps 728 mmHg 77%
    23:00 +4°C° 0 mm 4 mps 727 mmHg 76%
    Show more